Regional Weather Roundup
Issued by NWS

Home | Current Version | Previous Version | Text Only | Print | Product List | Glossary On
Versions: 1 2 3 4 5 6 7 8 9 10 11 12 13 14 15 16 17 18 19 20 21 22 23 24 25 26 27 28 29 30 31 32 33 34 35 36 37 38 39 40 41 42 43 44 45 46 47 48 49 50
000
ASUS42 KFFC 240110
RWRGA
WEATHER ROUNDUP FOR GEORGIA
NATIONAL WEATHER SERVICE PEACHTREE CITY GA
900 PM EDT SUN JUL 23 2017

NOTE: "FAIR" INDICATES FEW OR NO CLOUDS BELOW 12,000 FEET WITH NO
SIGNIFICANT WEATHER AND/OR OBSTRUCTIONS TO VISIBILITY.

* = USE WITH CAUTION. THE STATIONS MARKED WITH AN ASTERISK MAY NOT
REPORT WEATHER SUCH AS PRECIPITATION, FOG, OR THUNDER AND ARE NOT
QUALITY CONTROLLED BY NWS.

THE REMARK "TC" DENOTES TEMPERATURE READING IN DEGREES CELSIUS.

GAZ001>058-240200-
NORTH GEORGIA

CITY           SKY/WX    TMP DP  RH WIND       PRES   REMARKS
ATLANTA        MOCLDY    83  72  69 SW8       29.90S
ATHENS         TSTM      72  72 100 S13G21    29.93R FOG
CHAMBLEE       PTCLDY    79  74  84 VRB3      29.91R
PEACHTREE CITY PTCLDY    81  74  79 CALM      29.91S
ROME           CLOUDY    79  77  94 CALM      29.88R
WEST ATLANTA   PTCLDY    83  75  77 NW5       29.90R HX  90
GAINESVILLE    CLOUDY    76  67  73 W13       29.92F
CARTERSVILLE   CLOUDY    74  74 100 CALM      29.90R


CITY           SKY/WX    TMP DP  RH WIND       PRES   REMARKS
LAWRENCEVILLE* LGT RAIN N/A N/A N/A NW8       28.74F
MARIETTA       MOCLDY    77  71  82 CALM      29.92R
KENNESAW*      MOCLDY    77  72  83 SW6       29.91F
CANTON*        CLOUDY    81  70  69 SE3       29.93S
$$

GAZ059>098-102>109-240200-
CENTRAL GEORGIA

CITY           SKY/WX    TMP DP  RH WIND       PRES   REMARKS
AUGUSTA-BUSH   CLOUDY    81  72  74 NE9       29.94R
AUGUSTA-DANIEL TSTM      76  68  76 NW10G22   29.96R
COLUMBUS       CLOUDY    85  73  67 S14       29.90R HX  91
MACON          CLOUDY    81  73  76 SW5       29.89F
ROBINS AFB     CLOUDY    81  72  74 SW3       29.88F


CITY           SKY/WX    TMP DP  RH WIND       PRES   REMARKS
LAGRANGE*      CLEAR     83  77  83 CALM      29.91S HX  92
SYLVANIA*      PTCLDY    80  76  87 CALM      29.94R
MILLEDGEVILLE* CLOUDY    82  72  69 CALM      29.89R
$$

GAZ099>101-110>166-240200-
SOUTH GEORGIA

CITY           SKY/WX    TMP DP  RH WIND       PRES   REMARKS
SAVANNAH       MOCLDY    79  74  84 S5        29.93R
VALDOSTA       MOCLDY    78  73  84 VRB3      29.95S
ALMA           CLOUDY    80  74  81 SW7       29.92S
ST SIMONS      MOCLDY    81  77  88 SW7       29.94R
FT STEWART     MOCLDY    78  74  87 SW3       29.91R
ALBANY         PTCLDY    83  76  79 SW12      29.95R HX  91
HUNTER AFB     CLEAR     79  74  85 SW5       29.91R
MOODY AFB      MOCLDY    80  72  77 SW9       29.93R
BRUNSWICK      MOCLDY    79  77  94 S5        29.95S


CITY           SKY/WX    TMP DP  RH WIND       PRES   REMARKS
BAINBRIDGE*    PTCLDY    81  79  94 SW6       29.95R
MOULTRIE*      PTCLDY    79  73  83 SW5       29.96R
VIDALIA*       PTCLDY    79  77  94 CALM      29.92R
WAYCROSS*      CLOUDY    81  80  95 SW6       29.94S HX  92
DOUGLAS*       MOCLDY    79  72  78 SW5       29.94F
$$




USA.gov is the U.S. government's official web portal to all federal, state and local government web resources and services.